Bremerton, WA

4:52 PM PDT on July 27, 2017 (GMT -0700)
Bremerton National

Weather History for KPWT - May, 2014

Change the Weather History Date:

Tuesday, May 13, 2014

  Actual Average Record
Temperature  
Mean Temperature 66 °F -  
Max Temperature 78 °F 59 °F 84 °F (2016)
Min Temperature 55 °F 40 °F 26 °F (2012)
Cooling Degree Days 2    
Growing Degree Days 16 (Base 50)    
Moisture  
Dew Point 44 °F    
Average Humidity 45    
Maximum Humidity 72    
Minimum Humidity 26    
Precipitation  
Precipitation 0.00 in - - ()
Sea Level Pressure  
Sea Level Pressure 30.37 in    
Wind  
Wind Speed 9 mph (NNE)    
Max Wind Speed 13 mph    
Max Gust Speed 17 mph    
Visibility 10 miles    
Events      
Averages and records for this station are not official NWS values.
T = Trace of Precipitation, MM = Missing Value Source: NWS Daily Summary

Daily Weather History Graph

Daily Weather History Graph

Search for Another Location

Airport or City:

Trip Planner

Search our weather history database for the weather conditions in past years. The results will help you decide how hot, cold, wet, or windy it might be!

Date:

Astronomy

May. 13, 2014 Rise Set
Actual Time 5:36 AM PDT 8:39 PM PDT
Civil Twilight 5:00 AM PDT 9:15 PM PDT
Nautical Twilight 4:13 AM PDT 10:02 PM PDT
Astronomical Twilight 3:16 AM PDT 11:00 PM PDT
Moon 7:41 PM PDT (5/13) 5:03 AM PDT (5/13)
Length of Visible Light 16h 15m
Length of Day
15h 02m
Waxing Gibbous, 99% of the Moon is Illuminated
May 13
Waxing Gibbous
May 14
Full
May 21
Last Quarter
May 28
New
Jun 5
First Quarter

Hourly Weather History & Observations

Time (PDT) Temp. Dew Point Humidity Pressure Visibility Wind Dir Wind Speed Gust Speed Precip Events Conditions
12:35 AM 59.0 °F 42.8 °F 55% 30.36 in 10.0 mi NNE 5.8 mph - N/A   Clear
12:55 AM 59.0 °F 42.8 °F 55% 30.34 in 10.0 mi NNE 6.9 mph - N/A   Clear
1:15 AM 60.8 °F 42.8 °F 52% 30.35 in 10.0 mi NE 8.1 mph - N/A   Clear
1:35 AM 60.8 °F 42.8 °F 52% 30.35 in 10.0 mi NNE 11.5 mph - N/A   Clear
1:55 AM 60.8 °F 42.8 °F 52% 30.35 in 10.0 mi NNE 9.2 mph - N/A   Clear
2:15 AM 60.8 °F 42.8 °F 52% 30.35 in 10.0 mi NNE 9.2 mph - N/A   Clear
2:35 AM 60.8 °F 42.8 °F 52% 30.35 in 10.0 mi NE 6.9 mph - N/A   Clear
2:55 AM 59.0 °F 42.8 °F 55% 30.36 in 10.0 mi NE 9.2 mph - N/A   Clear
3:15 AM 59.0 °F 42.8 °F 55% 30.37 in 10.0 mi NE 9.2 mph - N/A   Clear
3:35 AM 57.2 °F 44.6 °F 63% 30.37 in 10.0 mi NNE 9.2 mph - N/A   Clear
3:55 AM 57.2 °F 44.6 °F 63% 30.37 in 10.0 mi NNE 9.2 mph - N/A   Clear
4:15 AM 57.2 °F 44.6 °F 63% 30.38 in 10.0 mi NE 11.5 mph - N/A   Scattered Clouds
4:35 AM 59.0 °F 44.6 °F 59% 30.37 in 10.0 mi NE 9.2 mph - N/A   Overcast
4:55 AM 57.2 °F 44.6 °F 63% 30.38 in 10.0 mi NE 9.2 mph - N/A   Scattered Clouds
5:15 AM 57.2 °F 44.6 °F 63% 30.36 in 10.0 mi NE 10.4 mph 17.3 mph N/A   Clear
6:15 AM 55.4 °F 46.4 °F 72% 30.38 in 10.0 mi NNE 9.2 mph - N/A   Clear
6:35 AM 57.2 °F 46.4 °F 67% 30.38 in 10.0 mi NNE 10.4 mph - N/A   Clear
6:55 AM 57.2 °F 46.4 °F 67% 30.39 in 10.0 mi NNE 10.4 mph 16.1 mph N/A   Clear
7:15 AM 57.2 °F 48.2 °F 72% 30.39 in 10.0 mi NE 11.5 mph 16.1 mph N/A   Partly Cloudy
7:55 AM 60.8 °F 48.2 °F 63% 30.40 in 10.0 mi NNE 12.7 mph - N/A   Partly Cloudy
9:35 AM 66.2 °F 50.0 °F 56% 30.41 in 10.0 mi NE 9.2 mph - N/A   Clear
9:55 AM 66.2 °F 50.0 °F 56% 30.41 in 10.0 mi NNE 10.4 mph - N/A   Clear
10:35 AM 68.0 °F 48.2 °F 49% 30.40 in 10.0 mi NNE 9.2 mph - N/A   Clear
10:55 AM 69.8 °F 48.2 °F 46% 30.41 in 10.0 mi NNE 9.2 mph - N/A   Clear
11:15 AM 69.8 °F 46.4 °F 43% 30.41 in 10.0 mi NE 6.9 mph - N/A   Clear
11:35 AM 71.6 °F 46.4 °F 41% 30.41 in 10.0 mi NNE 10.4 mph - N/A   Clear
11:55 AM 71.6 °F 46.4 °F 41% 30.40 in 10.0 mi ENE 10.4 mph - N/A   Clear
12:15 PM 71.6 °F 46.4 °F 41% 30.40 in 10.0 mi NE 11.5 mph - N/A   Clear
12:35 PM 73.4 °F 48.2 °F 41% 30.40 in 10.0 mi NE 8.1 mph - N/A   Clear
12:55 PM 73.4 °F 46.4 °F 38% 30.39 in 10.0 mi NNE 10.4 mph - N/A   Clear
1:15 PM 73.4 °F 46.4 °F 38% 30.39 in 10.0 mi North 9.2 mph - N/A   Clear
1:35 PM 75.2 °F 46.4 °F 36% 30.39 in 10.0 mi North 9.2 mph - N/A   Clear
1:55 PM 75.2 °F 46.4 °F 36% 30.39 in 10.0 mi North 10.4 mph 16.1 mph N/A   Clear
2:15 PM 75.2 °F 46.4 °F 36% 30.38 in 10.0 mi NNE 6.9 mph - N/A   Clear
2:35 PM 75.2 °F 46.4 °F 36% 30.38 in 10.0 mi NE 9.2 mph 17.3 mph N/A   Clear
2:55 PM 75.2 °F 46.4 °F 36% 30.37 in 10.0 mi NNE 9.2 mph - N/A   Clear
3:15 PM 77.0 °F 46.4 °F 34% 30.37 in 10.0 mi NNE 10.4 mph - N/A   Clear
3:35 PM 78.8 °F 48.2 °F 34% 30.36 in 10.0 mi NNE 11.5 mph - N/A   Clear
3:55 PM 77.0 °F 46.4 °F 34% 30.36 in 10.0 mi NE 8.1 mph - N/A   Clear
4:15 PM 77.0 °F 48.2 °F 36% 30.36 in 10.0 mi NNE 9.2 mph - N/A   Clear
4:35 PM 78.8 °F 44.6 °F 30% 30.35 in 10.0 mi North 8.1 mph 16.1 mph N/A   Clear
4:55 PM 77.0 °F 42.8 °F 29% 30.35 in 10.0 mi NNE 9.2 mph - N/A   Clear
5:15 PM 78.8 °F 41.0 °F 26% 30.34 in 10.0 mi NNE 10.4 mph - N/A   Clear
5:35 PM 77.0 °F 41.0 °F 28% 30.34 in 10.0 mi NNE 11.5 mph - N/A   Clear
5:55 PM 77.0 °F 41.0 °F 28% 30.33 in 10.0 mi NNE 11.5 mph - N/A   Clear
6:15 PM 77.0 °F 41.0 °F 28% 30.33 in 10.0 mi NE 11.5 mph - N/A   Clear
6:35 PM 75.2 °F 42.8 °F 31% 30.33 in 10.0 mi North 8.1 mph - N/A   Clear
6:55 PM 73.4 °F 42.8 °F 33% 30.33 in 10.0 mi NNE 6.9 mph - N/A   Clear
7:15 PM 71.6 °F 44.6 °F 38% 30.33 in 10.0 mi NNE 6.9 mph - N/A   Clear
7:55 PM 71.6 °F 42.8 °F 35% 30.33 in 10.0 mi NNE 8.1 mph - N/A   Clear
8:15 PM 69.8 °F 44.6 °F 40% 30.33 in 10.0 mi NNE 9.2 mph - N/A   Clear
8:35 PM 68.0 °F 44.6 °F 43% 30.34 in 10.0 mi NE 6.9 mph - N/A   Clear
8:55 PM 66.2 °F 44.6 °F 46% 30.34 in 10.0 mi NNE 8.1 mph - N/A   Clear
9:15 PM 66.2 °F 42.8 °F 43% 30.34 in 10.0 mi NE 9.2 mph - N/A   Clear
9:35 PM 66.2 °F 42.8 °F 43% 30.35 in 10.0 mi NE 8.1 mph - N/A   Clear
9:55 PM 66.2 °F 39.2 °F 37% 30.34 in 10.0 mi NE 5.8 mph - N/A   Clear
10:15 PM 66.2 °F 39.2 °F 37% 30.36 in 10.0 mi NE 9.2 mph - N/A   Clear
10:35 PM 64.4 °F 39.2 °F 40% 30.36 in 10.0 mi NE 8.1 mph - N/A   Clear
10:55 PM 64.4 °F 39.2 °F 40% 30.35 in 10.0 mi NE 6.9 mph - N/A   Clear
11:15 PM 60.8 °F 41.0 °F 48% 30.35 in 10.0 mi NNE 3.5 mph - N/A   Clear
11:35 PM 62.6 °F 39.2 °F 42% 30.36 in 10.0 mi NE 6.9 mph - N/A   Clear
11:55 PM 62.6 °F 39.2 °F 42% 30.35 in 10.0 mi NE 5.8 mph - N/A   Clear